STARLINK-4526 (53438 NORAD) Tracking and Keplerian Element Data

This shows tracking and keplerian element data for the satellite.

Feedback or suggestion? Click here.




ElementValue
Catalog53438
NameSTARLINK-4526
Epoch Orbit1649
Epoch Day325.33334491
Epoch Year2022
RAAN110.3273
Inclination53.2158
Eccentricity0.0001565
Argument of Perigee72.6407
Mean Anonmoly226.5585
Mean Motion15.08841975
Decay Rate6.145E-05
L11 53438U 22097BC 22325.33334491 .00006145 00000+0 40379-3 0 9998
L22 53438 53.2158 110.3273 0001565 72.6407 226.5585 15.08841975 16490



Live tracking and technical data element details for STARLINK-4526 (NORAD 53438). STARLINK-4526 can be tracked NOW for your location showing map with azimuth and elevation plus other details from your city location.







IsCatalogInMostPopularTable: catalog: 53438, numindb: 8
Update: records affected: 1



GetName: 53438 STARLINK-4526

Hit Count: updated at: Thu, 08 Dec 2022 18:40:37 GMT